Regional Weather Roundup
Issued by NWS Sterling, VA

Home | Current Version | Previous Version | Text Only | Print | Product List | Glossary On
Versions: 1 2 3 4 5 6 7 8 9 10 11 12 13 14 15 16 17 18 19 20 21 22 23 24 25 26 27 28 29 30 31 32 33 34 35 36 37 38 39 40 41 42 43 44 45 46 47 48 49
000
ASUS41 KLWX 311410
RWRLWX

REGIONAL WEATHER ROUNDUP
NATIONAL WEATHER SERVICE BALTIMORE MD/WASHINGTON DC
1000 AM EDT FRI JUL 31 2015

Note: "FAIR" indicates few or no clouds below 12,000 feet
with no significant weather and/or obstructions to visibility.
 TC=TEMPERATURE CELSIUS

 * =Non NWS site. Station does not report precipitation (e.g. rain,
    snow, etc.), thunder, or fog.

DCZ001-MDZ009-015-VAZ040>042-051-053>054-311500-
WASHINGTON METRO

CITY           SKY/WX    TMP DP  RH WIND       PRES   REMARKS
WASHINGTON NAT SUNNY     85  61  44 NW10      29.96S
DULLES         MOSUNNY   80  63  55 NW9       29.97S
ANDREWS AFB    SUNNY     82  63  52 W7        29.95S
FT BELVOIR     SUNNY     82  63  51 W7        29.95F
QUANTICO       SUNNY     88  62  41 W6        29.97S
COLLEGE PARK*  SUNNY     82  61  47 W5        29.94F
LEESBURG*      SUNNY     81  66  61 NW10G16   29.98S
MANASSAS*      SUNNY     81  63  54 NW8       29.97S
GAITHERSBURG*  SUNNY     79  63  57 NW7       30.00S

$$

MDZ006>007-011-014-311500-
BALTIMORE METRO

CITY           SKY/WX    TMP DP  RH WIND       PRES   REMARKS
BWI AIRPORT    MOSUNNY   82  61  48 W8        29.94S
MD SCIENCE CTR   N/A     83  59  44 MISG      29.94S
MARTIN STATE   SUNNY     82  64  54 W6        29.95S
ANNAPOLIS      SUNNY     80  64  58 N6        29.93S
FORT MEADE*    SUNNY     79  64  61 W5        29.97S

$$

MDZ012-015-019>023-311500-
MARYLAND EASTERN SHORE

CITY           SKY/WX    TMP DP  RH WIND       PRES   REMARKS
OCEAN CITY     SUNNY     83  61  47 N8        29.92S
SALISBURY      SUNNY     82  64  54 NW9       29.93S
BAY BRIDGE AP*   N/A     81  63  54 N5        29.94S
CAMBRIDGE*     SUNNY     81  63  54 N5        29.93F
EASTON*        SUNNY     82  66  57 NW6       29.97S

$$

MDZ017>025-311500-
SOUTHERN MARYLAND

CITY           SKY/WX    TMP DP  RH WIND       PRES   REMARKS
PATUXENT RIVER MOSUNNY   80  66  62 NW7       29.95R
ST INIGOES     SUNNY     81  67  62 VRB5      29.94S
LEONARDTOWN*   SUNNY     79  61  53 CALM      29.97S

$$

MDZ003>005-311500-
NORTH CENTRAL MARYLAND

CITY           SKY/WX    TMP DP  RH WIND       PRES   REMARKS
FREDERICK*     SUNNY     82  64  54 NW7       29.99
HAGERSTOWN APT SUNNY     79  60  52 VRB6      29.98S
WESTMINSTER*   SUNNY     77  64  65 W7        29.97S

$$

MDZ501>502-311500-
WESTERN MARYLAND

CITY           SKY/WX    TMP DP  RH WIND       PRES   REMARKS
OAKLAND*       SUNNY     68  68 100 W6        30.10F
CUMBERLAND*    SUNNY     75  63  64 CALM      30.04F

$$

VAZ025>031-311500-
SHENANDOAH VALLEY

CITY           SKY/WX    TMP DP  RH WIND       PRES   REMARKS
WINCHESTER*    SUNNY     81  59  47 W13       29.99S
FRONT ROYAL*   FAIR      75  66  73 S6        30.00S
LURAY*         FAIR      81  61  50 SW6       30.01F
NEW MARKET*    FAIR      75  64  67 CALM      30.01F
STAUNTON*      SUNNY     77  62  58 CALM      30.06F
WAYNESBORO*    FAIR      75  60  60 W6        30.05F

$$

WVZ021-048>050-054>055-311500-
EASTERN WEST VIRGINIA PANHANDLE

CITY           SKY/WX    TMP DP  RH WIND       PRES   REMARKS
MARTINSBURG    SUNNY     79  59  50 NW8       29.98F
PETERSBURG*    SUNNY    N/A N/A N/A CALM      30.04S

$$

VAZ036>039-050-311500-
CENTRAL FOOTHILLS

CITY           SKY/WX    TMP DP  RH WIND       PRES   REMARKS
CHARLOTTESVILL SUNNY     80  65  59 NW3       30.00F
CULPEPER*      SUNNY     78  65  63 NW5       29.99S
ORANGE*        SUNNY     81  63  54 NW6       30.00S
GORDONSVILLE*  FAIR      79  63  57 NW3       29.99S
WARRENTON*     FAIR      82  67  59 W8        29.97F

$$

VAZ055>057-311500-
NORTH AND CENTRAL PIEDMONT

CITY           SKY/WX    TMP DP  RH WIND       PRES   REMARKS
FREDERICKSBRG* SUNNY     83  62  50 NW5       29.96S
STAFFORD*      SUNNY     80  61  52 NW10      30.01S

$$

NCZ024-NYZ072-PAZ021-071-VAZ022-071-311500-
OTHER REGIONAL OBSERVATIONS

CITY           SKY/WX    TMP DP  RH WIND       PRES   REMARKS
NEW YORK CITY  SUNNY     80  58  46 W6        29.91S
PHILADELPHIA   SUNNY     82  59  45 NW12      29.91S
PITTSBURGH     SUNNY     76  58  53 VRB5      30.01S
ROANOKE        SUNNY     78  58  49 VRB5      30.07F
RICHMOND       MOSUNNY   83  63  50 N9        29.97R
RALEIGH        MOSUNNY   82  63  52 NE6       29.99S

$$

ANZ530>537-311500-
MARINE OBSERVATIONS

STATION/POSITION TIME  TEMP    WIND        PRES
                       AIR SEA DIR/SP/G
                 (UTC) (F)     (DEG/KT/KT) (MB)
THOMAS PT LIGHT  NOT AVBL
BALT KEY BRIDGE  1300   78     270/  8/  9 1013.7R
COVE POINT       1300   76     360/ 10/ 12 1014.6R
LEWISETTA        1300   78 83  340/  7/ 10 1013.8R
SOLOMONS ISLAND  1300      82                N/A
PINEY POINT      1300          360/ 10/ 11   N/A

$$




USA.gov is the U.S. government's official web portal to all federal, state and local government web resources and services.